Location: St Paul
(33.9360°N, 83.4200°W)
Time: 11:09:18
(UTC-05:00)

Cosmos 2366 rocket - Pass Details

Date: 06 October 2017
Orbit: 956 x 997 km, 82.9° (Epoch: 14 December)

Event Time Altitude Azimuth Distance (km) Brightness Sun altitude
Rises 20:03:16 0° 163° (SSE) 3,689 6.8 -11.7°
Reaches altitude 10° 20:05:57 10° 155° (SSE) 2,739 6.1 -12.3°
Maximum altitude 20:11:40 39° 89° (E) 1,444 4.4 -13.4°
Drops below altitude 10° 20:17:23 10° 23° (NNE) 2,728 6.1 -14.6°
Sets 20:20:02 0° 16° (NNE) 3,673 6.9 -15.2°
